Notices

What's New in latest Release from April 7th, 2021:

- Updated Glossary, including Speed of Maximum Gust, and Total Hourly Precipitation

- Updated national and regional climate services offices contacts and prices information

- Addition of station inventory lists for 1981-2010, 1971-2000, and 1961-1990 Normals.

If you haven't already, please take our survey and provide feedback about our website: https://eccc.sondage-survey.ca/f/LanguageSelection.aspx?s=442ca660-fcf1-47c0-95a9-59707d6fd709

Hourly Data Report for March 14, 2019

MIRAMICHI RCS
NEW BRUNSWICK
Current Station Operator: ECCC - MSC

47°00'34.000" N
65°27'54.000" W
33.00 m
8100989
71744
ACQ

Download Data

Hourly Data (March 2019)
Hourly Data Report for March 14, 2019
TIME
LST
Temp Definition
°C
Dew Point Definition
°C
Rel Hum Definition
%
Precip. Amount Definition
mm

Wind Dir Definition
10's deg

Wind Spd Definition
km/h
Visibility Definition
km
Stn Press Definition
kPa
Hmdx Definition


Wind Chill Definition


Weather Definition


00:00 0.0 -8.0 55 0.0 24 9   101.88   -3 LegendNANA
01:00 0.5 -9.2 48 0.0 25 12   101.85     LegendNANA
02:00 -0.2 -8.2 55 0.0 23 13   101.83   -4 LegendNANA
03:00 -2.4 -9.3 59 0.0 22 9   101.78   -6 LegendNANA
04:00 -3.5 -9.9 61 0.0 22 8   101.75   -7 LegendNANA
05:00 -3.2 -10.1 59 0.0 25 5   101.80   -5 LegendNANA
06:00 -4.0 -10.3 61 0.0 25 7   101.84   -7 LegendNANA
07:00 -3.8 -10.0 62 0.0 26 5   102.01   -6 LegendNANA
08:00 -3.6 -10.0 61 0.0 21 5   102.00   -6 LegendNANA
09:00 -0.5 -9.0 52 0.0 24 4   102.02   -2 LegendNANA
10:00 1.6 -6.0 57 0.0 22 8   102.07     LegendNANA
11:00 4.6 -5.0 50 0.0 20 7   102.02     LegendNANA
12:00 7.7 -4.6 41 0.0 6 3   101.95     LegendNANA
13:00 9.3 -3.8 39 0.0 15 3   101.85     LegendNANA
14:00 8.3 -4.5 40 0.0 21 9   101.80     LegendNANA
15:00 9.0 -3.7 41 0.0 22 8   101.80     LegendNANA
16:00 7.6 -3.6 45 0.0 16 10   101.74     LegendNANA
17:00 8.1 -3.9 42 0.0 19 13   101.71     LegendNANA
18:00 7.6 -4.3 43 0.0 20 11   101.69     LegendNANA
19:00 5.6 -5.7 44 0.0 20 13   101.70     LegendNANA
20:00 4.0 -5.6 50 0.0 20 13   101.74     LegendNANA
21:00 3.7 -3.6 59 0.0 22 18   101.74     LegendNANA
22:00 2.8 -3.1 65 0.0 21 13   101.67     LegendNANA
23:00 2.3 -3.0 68 0.0 21 17   101.66     LegendNANA

Notes on Data Quality.

Legend

  • E = Estimated
  • M = Missing
  • NA = Not Available*
  • [empty] = Indicates an unobserved value
Date modified: